weather.gov     
National Weather Service

Terminal Aerodrome Forecast
NWS Homepage
This page is being discontinued on March 12, 2014.
The same data is available at this site. Please update your bookmarks.
Thank you, and we apologize for the inconvenience.
Please send an email to SR-SRH.Webmaster@noaa.gov with any concerns.


Current Version
Previous Version:    01  02  03  04  05  06  07  08  09  10  11  12  13  14  15  16  17  18  19  20  21  22  23  24  25  26  27  
[Printable]
779
FTUS46 KLOX 311700 RRA
TAFVNY
TAF
KVNY 311741Z 3118/0118 02003KT P6SM BKN027
     FM312100 15008KT P6SM BKN025 BKN100
     FM010300 15008KT P6SM VCSH BKN015 OVC025
     FM010700 15008KT P6SM -SHRA OVC015
     FM011000 13010KT 4SM -RA BR SCT007 OVC015
     FM011500 25008KT P6SM -SHRA SCT010 BKN020=


U.S. Dept. of Commerce
NOAA National Weather Service
1325 East West Highway
Silver Spring, MD 20910
E-mail: w-nws.webmaster@noaa.gov
Page last modified: May 16, 2007
NATIONAL WEATHER SERVICE: for Safety, for Work, for Fun - FOR LIFE